Location: Red Deer
(52.2681°N, 113.8112°W)
Time: 00:09:55
(UTC-06:00)

QB50P2 - Pass Details

Date: 23 May 2022
Orbit: 589 x 607 km, 97.9° (Epoch: 27 June)

Event Time Altitude Azimuth Distance (km) Brightness Sun altitude
Rises 03:14:57 0° 13° (NNE) 2,841 ? -13.7°
Reaches altitude 10° 03:17:07 10° 13° (NNE) 1,933 ? -13.6°
Maximum altitude 03:21:19 82° 287° (WNW) 602 ? -13.3°
Enters shadow 03:24:05 21° 200° (SSW) 1,352 ? -13.1°
